This is the latest recevied weather packets stored in our database for station/object KI8L. If no packets are shown the sender has not sent any weather packets the latest 10 day(s).
| Time | Temp. | Humidity | Pressure | Rain* | Wind** | Luminosity | Snow |
|---|---|---|---|---|---|---|---|
| 1777997584 | 19.44° C | 70% | 1010.4 hPa | 0 mm | - | 107 W/m² | - |
| 1777997282 | 19.44° C | 67% | 1010.3 hPa | 0 mm | - | 156 W/m² | - |
| 1777996979 | 19.44° C | 67% | 1010.6 hPa | 0 mm | - | 184 W/m² | - |
| 1777996676 | 20° C | 67% | 1010.3 hPa | 0 mm | - | 167 W/m² | - |
| 1777996372 | 20.56° C | 66% | 1010.2 hPa | 0 mm | - | 209 W/m² | - |
| 1777996068 | 20.56° C | 66% | 1010.2 hPa | 0 mm | - | 214 W/m² | - |
| 1777995765 | 20.56° C | 67% | 1009.9 hPa | 0 mm | - | 638 W/m² | - |
| 1777995461 | 20.56° C | 65% | 1009.8 hPa | 0 mm | - | 246 W/m² | - |
| 1777995158 | 20.56° C | 64% | 1009.8 hPa | 0 mm | - | 569 W/m² | - |
| 1777994856 | 20.56° C | 67% | 1009.5 hPa | 0 mm | - | 532 W/m² | - |
| 1777994552 | 20.56° C | 68% | 1009.5 hPa | 0 mm | - | 492 W/m² | - |
| 1777994252 | 20° C | 65% | 1009.4 hPa | 0 mm | - | 503 W/m² | - |
| 1777993950 | 20° C | 69% | 1008.9 hPa | 0 mm | - | 495 W/m² | - |
| 1777993646 | 20° C | 69% | 1009.2 hPa | 0 mm | - | 505 W/m² | - |
| 1777993344 | 20° C | 69% | 1009.2 hPa | 0 mm | - | 497 W/m² | - |
| 1777993044 | 19.44° C | 69% | 1009.4 hPa | 0 mm | - | 432 W/m² | - |
| 1777992743 | 19.44° C | 69% | 1009.2 hPa | 0 mm | - | 437 W/m² | - |
| 1777992440 | 20° C | 67% | 1009.5 hPa | 0 mm | - | 469 W/m² | - |
| 1777992138 | 20° C | 73% | 1009.1 hPa | 0 mm | - | 487 W/m² | - |
| 1777991835 | 19.44° C | 72% | 1009 hPa | 0 mm | - | 466 W/m² | - |
| 1777991532 | 19.44° C | 73% | 1009.2 hPa | 0 mm | - | 417 W/m² | - |
| 1777991229 | 19.44° C | 71% | 1009.2 hPa | 0 mm | - | 413 W/m² | - |
| 1777990926 | 18.89° C | 74% | 1009.2 hPa | 0 mm | - | 424 W/m² | - |
| 1777990624 | 18.89° C | 72% | 1009.2 hPa | 0 mm | - | 414 W/m² | - |
| 1777990017 | 18.33° C | 73% | 1009.3 hPa | 0 mm | - | 411 W/m² | - |
* Rain latest hour (hover to see other rain measurements)
** Current wind speed in m/s (hover to see current wind gust speed)